Time,TemperatureF,DewpointF,PressureIn,WindDirection,WindDirectionDegrees,WindSpeedMPH,WindSpeedGustMPH,Humidity,HourlyPrecipIn,Conditions,Clouds,dailyrainin,SoftwareType,DateUTC
2013-05-22 00:03:00,79.2,76.3,29.73,SE,129,8.0,13.0,91,0.00,,,0.00,meteohub,2013-05-22 05:03:00,
2013-05-22 00:08:00,79.0,76.1,29.73,SSE,153,6.0,11.0,91,0.00,,,0.00,meteohub,2013-05-22 05:08:00,
2013-05-22 00:13:00,79.0,76.5,29.73,SE,125,4.0,11.0,92,0.00,,,0.00,meteohub,2013-05-22 05:13:00,
2013-05-22 00:18:00,79.2,76.3,29.73,SE,131,6.0,9.0,91,0.00,,,0.00,meteohub,2013-05-22 05:18:00,
2013-05-22 00:23:00,79.2,76.3,29.73,SE,130,5.0,10.0,91,0.00,,,0.00,meteohub,2013-05-22 05:23:00,
2013-05-22 00:28:00,79.2,76.3,29.73,ESE,105,6.0,10.0,91,0.00,,,0.00,meteohub,2013-05-22 05:28:00,
2013-05-22 00:33:00,79.2,76.3,29.73,SE,129,8.0,10.0,91,0.00,,,0.00,meteohub,2013-05-22 05:33:00,
2013-05-22 00:38:00,79.2,76.3,29.73,ESE,115,10.0,10.0,91,0.00,,,0.00,meteohub,2013-05-22 05:38:00,
2013-05-22 00:43:00,79.2,76.3,29.74,ESE,115,8.0,10.0,91,0.00,,,0.00,meteohub,2013-05-22 05:43:00,
2013-05-22 00:48:00,79.2,76.3,29.74,ESE,118,6.0,10.0,91,0.00,,,0.00,meteohub,2013-05-22 05:48:00,
2013-05-22 00:53:00,79.2,76.3,29.74,ESE,109,6.0,10.0,91,0.00,,,0.00,meteohub,2013-05-22 05:53:00,
2013-05-22 00:58:00,79.2,76.3,29.73,ESE,123,8.0,10.0,91,0.00,,,0.00,meteohub,2013-05-22 05:58:00,
2013-05-22 01:03:00,79.2,76.3,29.73,SE,132,5.0,10.0,91,0.00,,,0.00,meteohub,2013-05-22 06:03:00,
2013-05-22 01:09:00,79.2,76.3,29.74,SSE,153,6.0,10.0,91,0.00,,,0.00,meteohub,2013-05-22 06:09:00,
2013-05-22 01:14:00,79.3,76.5,29.73,ESE,105,5.0,10.0,91,0.00,,,0.00,meteohub,2013-05-22 06:14:00,
2013-05-22 01:19:00,79.2,76.3,29.73,ESE,110,9.0,9.0,91,0.00,,,0.00,meteohub,2013-05-22 06:19:00,
2013-05-22 01:24:00,79.2,76.3,29.73,SE,125,7.0,9.0,91,0.00,,,0.00,meteohub,2013-05-22 06:24:00,
2013-05-22 01:29:00,79.2,76.3,29.73,SE,141,6.0,11.0,91,0.00,,,0.00,meteohub,2013-05-22 06:29:00,
2013-05-22 01:34:00,79.2,76.3,29.73,ESE,110,6.0,11.0,91,0.00,,,0.00,meteohub,2013-05-22 06:34:00,
2013-05-22 01:39:00,79.3,76.5,29.73,SE,127,5.0,11.0,91,0.00,,,0.00,meteohub,2013-05-22 06:39:00,
2013-05-22 01:44:00,79.3,76.5,29.73,ESE,113,8.0,11.0,91,0.00,,,0.00,meteohub,2013-05-22 06:44:00,
2013-05-22 01:49:00,79.3,76.5,29.73,SE,133,5.0,10.0,91,0.00,,,0.00,meteohub,2013-05-22 06:49:00,
2013-05-22 01:54:00,79.3,76.5,29.73,ESE,119,6.0,10.0,91,0.00,,,0.00,meteohub,2013-05-22 06:54:00,
2013-05-22 01:59:00,79.3,76.5,29.73,SE,124,8.0,10.0,91,0.00,,,0.00,meteohub,2013-05-22 06:59:00,
2013-05-22 02:05:00,79.3,76.1,29.73,SE,127,7.0,13.0,90,0.00,,,0.00,meteohub,2013-05-22 07:05:00,
2013-05-22 02:10:00,79.2,75.9,29.73,SE,133,6.0,13.0,90,0.00,,,0.00,meteohub,2013-05-22 07:10:00,
2013-05-22 02:15:00,79.2,75.9,29.73,SE,134,5.0,13.0,90,0.00,,,0.00,meteohub,2013-05-22 07:15:00,
2013-05-22 02:20:00,79.2,75.9,29.73,ESE,111,6.0,11.0,90,0.00,,,0.00,meteohub,2013-05-22 07:20:00,
2013-05-22 02:25:00,79.2,75.9,29.72,East,92,7.0,10.0,90,0.00,,,0.00,meteohub,2013-05-22 07:25:00,
2013-05-22 02:30:00,79.2,76.3,29.72,SE,143,5.0,8.0,91,0.00,,,0.00,meteohub,2013-05-22 07:30:00,
2013-05-22 02:35:00,79.0,76.1,29.72,SE,134,7.0,10.0,91,0.00,,,0.00,meteohub,2013-05-22 07:35:00,
2013-05-22 02:40:00,79.0,76.1,29.72,ESE,105,6.0,11.0,91,0.00,,,0.00,meteohub,2013-05-22 07:40:00,
2013-05-22 02:45:00,78.8,75.9,29.72,SE,135,5.0,11.0,91,0.00,,,0.00,meteohub,2013-05-22 07:45:00,
2013-05-22 02:50:00,78.8,76.3,29.72,ESE,123,9.0,10.0,92,0.00,,,0.00,meteohub,2013-05-22 07:50:00,
2013-05-22 02:55:00,78.6,76.1,29.72,SE,133,4.0,10.0,92,0.00,,,0.00,meteohub,2013-05-22 07:55:00,
2013-05-22 03:00:00,78.6,76.1,29.72,SE,136,7.0,10.0,92,0.00,,,0.00,meteohub,2013-05-22 08:00:00,
2013-05-22 03:05:00,78.4,76.3,29.72,ESE,122,6.0,10.0,93,0.00,,,0.00,meteohub,2013-05-22 08:05:00,
2013-05-22 03:11:00,78.4,76.3,29.72,SE,127,8.0,10.0,93,0.00,,,0.00,meteohub,2013-05-22 08:11:00,
2013-05-22 03:15:00,78.3,76.1,29.72,SE,130,9.0,11.0,93,0.00,,,0.00,meteohub,2013-05-22 08:15:00,
2013-05-22 03:21:00,78.3,76.1,29.72,SE,130,10.0,11.0,93,0.00,,,0.00,meteohub,2013-05-22 08:21:00,
2013-05-22 03:26:00,78.3,76.1,29.72,SE,133,5.0,12.0,93,0.00,,,0.00,meteohub,2013-05-22 08:26:00,
2013-05-22 03:31:00,78.3,76.1,29.72,SE,130,8.0,12.0,93,0.00,,,0.00,meteohub,2013-05-22 08:31:00,
2013-05-22 03:36:00,78.3,76.5,29.72,SE,143,4.0,12.0,94,0.00,,,0.00,meteohub,2013-05-22 08:36:00,
2013-05-22 03:41:00,78.3,76.5,29.72,SE,134,6.0,11.0,94,0.00,,,0.00,meteohub,2013-05-22 08:41:00,
2013-05-22 03:46:00,78.1,76.3,29.72,ESE,121,6.0,11.0,94,0.00,,,0.00,meteohub,2013-05-22 08:46:00,
2013-05-22 03:51:00,78.1,76.3,29.72,ESE,119,11.0,11.0,94,0.00,,,0.00,meteohub,2013-05-22 08:51:00,
2013-05-22 03:56:00,78.1,76.3,29.72,SE,143,5.0,12.0,94,0.00,,,0.00,meteohub,2013-05-22 08:56:00,
2013-05-22 04:01:00,78.1,76.3,29.73,SE,127,6.0,12.0,94,0.00,,,0.00,meteohub,2013-05-22 09:01:00,
2013-05-22 04:07:00,78.1,76.3,29.73,ESE,123,9.0,12.0,94,0.00,,,0.00,meteohub,2013-05-22 09:07:00,
2013-05-22 04:12:00,78.1,76.3,29.72,SE,130,7.0,12.0,94,0.00,,,0.00,meteohub,2013-05-22 09:12:00,
2013-05-22 04:17:00,78.1,76.3,29.73,ESE,118,7.0,12.0,94,0.00,,,0.00,meteohub,2013-05-22 09:17:00,
2013-05-22 04:22:00,78.1,76.3,29.72,ESE,117,8.0,12.0,94,0.00,,,0.00,meteohub,2013-05-22 09:22:00,
2013-05-22 04:27:00,78.1,76.3,29.73,ESE,116,7.0,12.0,94,0.00,,,0.00,meteohub,2013-05-22 09:27:00,
2013-05-22 04:32:00,78.1,76.3,29.72,SE,126,5.0,13.0,94,0.00,,,0.00,meteohub,2013-05-22 09:32:00,
2013-05-22 04:37:00,78.3,76.1,29.73,ESE,109,6.0,13.0,93,0.00,,,0.00,meteohub,2013-05-22 09:37:00,
2013-05-22 04:42:00,78.3,76.1,29.73,SE,141,6.0,10.0,93,0.00,,,0.00,meteohub,2013-05-22 09:42:00,
2013-05-22 04:47:00,78.3,76.1,29.73,SE,128,5.0,8.0,93,0.00,,,0.00,meteohub,2013-05-22 09:47:00,
2013-05-22 04:52:00,78.3,76.1,29.73,SE,125,4.0,10.0,93,0.00,,,0.00,meteohub,2013-05-22 09:52:00,
2013-05-22 04:57:00,78.3,76.1,29.73,SE,124,6.0,10.0,93,0.00,,,0.00,meteohub,2013-05-22 09:57:00,
2013-05-22 05:02:00,78.3,76.1,29.73,SE,124,7.0,10.0,93,0.00,,,0.00,meteohub,2013-05-22 10:02:00,
2013-05-22 05:07:00,78.3,76.1,29.73,SE,143,3.0,11.0,93,0.00,,,0.00,meteohub,2013-05-22 10:07:00,
2013-05-22 05:11:00,78.3,76.1,29.73,East,96,3.0,11.0,93,0.00,,,0.00,meteohub,2013-05-22 10:11:00,
2013-05-22 05:16:00,78.3,76.1,29.74,North,349,1.0,11.0,93,0.00,,,0.00,meteohub,2013-05-22 10:16:00,
2013-05-22 05:22:00,78.3,76.1,29.74,ENE,68,0.0,7.0,93,0.00,,,0.00,meteohub,2013-05-22 10:22:00,
2013-05-22 05:27:00,78.1,75.9,29.74,East,97,3.0,6.0,93,0.00,,,0.00,meteohub,2013-05-22 10:27:00,
2013-05-22 05:32:00,78.1,75.9,29.74,ESE,105,4.0,6.0,93,0.00,,,0.00,meteohub,2013-05-22 10:32:00,
2013-05-22 05:37:00,78.3,76.1,29.74,SE,129,2.0,6.0,93,0.00,,,0.00,meteohub,2013-05-22 10:37:00,
2013-05-22 05:42:00,78.3,76.1,29.74,ESE,121,1.0,6.0,93,0.00,,,0.00,meteohub,2013-05-22 10:42:00,
2013-05-22 05:47:00,78.3,76.1,29.74,East,95,2.0,6.0,93,0.00,,,0.00,meteohub,2013-05-22 10:47:00,
2013-05-22 05:52:00,78.3,76.1,29.74,ENE,63,3.0,6.0,93,0.00,,,0.00,meteohub,2013-05-22 10:52:00,
2013-05-22 05:57:00,78.1,75.9,29.74,ENE,65,2.0,5.0,93,0.00,,,0.00,meteohub,2013-05-22 10:57:00,
2013-05-22 06:02:00,78.1,75.9,29.74,ENE,77,2.0,4.0,93,0.00,,,0.00,meteohub,2013-05-22 11:02:00,
2013-05-22 06:07:00,78.1,75.9,29.75,ENE,74,3.0,4.0,93,0.00,,,0.00,meteohub,2013-05-22 11:07:00,
2013-05-22 06:12:00,78.1,76.3,29.75,NE,49,2.0,4.0,94,0.00,,,0.00,meteohub,2013-05-22 11:12:00,
2013-05-22 06:17:00,78.1,76.3,29.75,NE,37,3.0,4.0,94,0.00,,,0.00,meteohub,2013-05-22 11:17:00,
2013-05-22 06:22:00,78.1,76.3,29.75,NE,47,2.0,4.0,94,0.00,,,0.00,meteohub,2013-05-22 11:22:00,
2013-05-22 06:27:00,78.1,76.3,29.75,ENE,70,4.0,4.0,94,0.00,,,0.00,meteohub,2013-05-22 11:27:00,
2013-05-22 06:32:00,78.1,76.3,29.75,NE,39,3.0,4.0,94,0.00,,,0.00,meteohub,2013-05-22 11:32:00,
2013-05-22 06:37:00,78.1,76.3,29.76,NE,46,1.0,4.0,94,0.00,,,0.00,meteohub,2013-05-22 11:37:00,
2013-05-22 06:42:00,78.1,76.3,29.76,NNE,26,2.0,4.0,94,0.00,,,0.00,meteohub,2013-05-22 11:42:00,
2013-05-22 06:47:00,78.1,76.3,29.76,NE,46,1.0,3.0,94,0.00,,,0.00,meteohub,2013-05-22 11:47:00,
2013-05-22 06:52:00,78.1,76.3,29.76,NNE,23,2.0,4.0,94,0.00,,,0.00,meteohub,2013-05-22 11:52:00,
2013-05-22 06:57:00,78.3,76.5,29.76,NE,49,4.0,4.0,94,0.00,,,0.00,meteohub,2013-05-22 11:57:00,
2013-05-22 07:02:00,78.3,76.5,29.77,North,352,3.0,4.0,94,0.00,,,0.00,meteohub,2013-05-22 12:02:00,
2013-05-22 07:07:00,78.4,76.3,29.77,ENE,73,3.0,6.0,93,0.00,,,0.00,meteohub,2013-05-22 12:07:00,
2013-05-22 07:12:00,78.4,76.3,29.77,ENE,59,5.0,7.0,93,0.00,,,0.00,meteohub,2013-05-22 12:12:00,
2013-05-22 07:17:00,78.6,76.5,29.78,East,86,2.0,7.0,93,0.00,,,0.00,meteohub,2013-05-22 12:17:00,
2013-05-22 07:22:00,78.6,76.5,29.78,NE,56,3.0,7.0,93,0.00,,,0.00,meteohub,2013-05-22 12:22:00,
2013-05-22 07:27:00,78.8,76.3,29.78,ENE,60,2.0,6.0,92,0.00,,,0.00,meteohub,2013-05-22 12:27:00,
2013-05-22 07:32:00,78.8,76.3,29.78,East,79,1.0,5.0,92,0.00,,,0.00,meteohub,2013-05-22 12:32:00,
2013-05-22 07:37:00,79.0,76.5,29.78,East,87,3.0,4.0,92,0.00,,,0.00,meteohub,2013-05-22 12:37:00,
2013-05-22 07:42:00,79.0,76.5,29.78,ESE,120,4.0,5.0,92,0.00,,,0.00,meteohub,2013-05-22 12:42:00,
2013-05-22 07:47:00,79.2,76.3,29.78,ESE,116,2.0,5.0,91,0.00,,,0.00,meteohub,2013-05-22 12:47:00,
2013-05-22 07:52:00,79.3,76.5,29.78,East,91,5.0,6.0,91,0.00,,,0.00,meteohub,2013-05-22 12:52:00,
2013-05-22 07:57:00,79.3,76.5,29.78,SE,124,3.0,6.0,91,0.00,,,0.00,meteohub,2013-05-22 12:57:00,
2013-05-22 08:02:00,79.5,76.6,29.78,ESE,110,5.0,6.0,91,0.00,,,0.00,meteohub,2013-05-22 13:02:00,
2013-05-22 08:07:00,79.5,76.3,29.78,ESE,105,4.0,7.0,90,0.00,,,0.00,meteohub,2013-05-22 13:07:00,
2013-05-22 08:12:00,79.7,76.5,29.78,SE,130,4.0,7.0,90,0.00,,,0.00,meteohub,2013-05-22 13:12:00,
2013-05-22 08:17:00,79.9,76.6,29.79,SE,133,7.0,8.0,90,0.00,,,0.00,meteohub,2013-05-22 13:17:00,
2013-05-22 08:22:00,79.9,76.6,29.79,SE,128,6.0,8.0,90,0.00,,,0.00,meteohub,2013-05-22 13:22:00,
2013-05-22 08:26:00,80.1,76.5,29.79,ESE,113,8.0,8.0,89,0.00,,,0.00,meteohub,2013-05-22 13:26:00,
2013-05-22 08:32:00,80.1,76.5,29.79,ESE,103,7.0,9.0,89,0.00,,,0.00,meteohub,2013-05-22 13:32:00,
2013-05-22 08:37:00,80.2,76.6,29.79,ESE,121,6.0,9.0,89,0.00,,,0.00,meteohub,2013-05-22 13:37:00,
2013-05-22 08:42:00,80.2,76.6,29.79,ESE,107,8.0,10.0,89,0.00,,,0.00,meteohub,2013-05-22 13:42:00,
2013-05-22 08:47:00,80.2,76.6,29.79,SE,137,9.0,10.0,89,0.00,,,0.00,meteohub,2013-05-22 13:47:00,
2013-05-22 08:52:00,80.4,76.5,29.79,SE,124,6.0,11.0,88,0.00,,,0.00,meteohub,2013-05-22 13:52:00,
2013-05-22 08:57:00,80.4,76.8,29.79,SE,127,7.0,11.0,89,0.00,,,0.00,meteohub,2013-05-22 13:57:00,
2013-05-22 09:02:00,80.4,76.5,29.80,SE,143,5.0,11.0,88,0.00,,,0.00,meteohub,2013-05-22 14:02:00,
2013-05-22 09:07:00,80.6,76.6,29.80,SE,135,4.0,10.0,88,0.00,,,0.00,meteohub,2013-05-22 14:07:00,
2013-05-22 09:12:00,80.8,76.8,29.80,SE,143,6.0,10.0,88,0.00,,,0.00,meteohub,2013-05-22 14:12:00,
2013-05-22 09:17:00,80.8,76.8,29.80,SE,124,5.0,10.0,88,0.00,,,0.00,meteohub,2013-05-22 14:17:00,
2013-05-22 09:22:00,81.0,77.0,29.80,SE,127,5.0,10.0,88,0.00,,,0.00,meteohub,2013-05-22 14:22:00,
2013-05-22 09:27:00,81.0,76.6,29.80,SE,124,6.0,10.0,87,0.00,,,0.00,meteohub,2013-05-22 14:27:00,
2013-05-22 09:32:00,81.3,76.6,29.81,SSE,158,7.0,11.0,86,0.00,,,0.00,meteohub,2013-05-22 14:32:00,
2013-05-22 09:37:00,81.7,77.0,29.81,ESE,117,7.0,11.0,86,0.00,,,0.00,meteohub,2013-05-22 14:37:00,
2013-05-22 09:42:00,81.7,76.6,29.81,SE,139,6.0,12.0,85,0.00,,,0.00,meteohub,2013-05-22 14:42:00,
2013-05-22 09:47:00,81.9,76.8,29.81,ESE,103,7.0,12.0,85,0.00,,,0.00,meteohub,2013-05-22 14:47:00,
2013-05-22 09:52:00,82.0,76.6,29.81,ESE,117,7.0,12.0,84,0.00,,,0.00,meteohub,2013-05-22 14:52:00,
2013-05-22 09:57:00,82.2,76.8,29.81,SE,141,9.0,12.0,84,0.00,,,0.00,meteohub,2013-05-22 14:57:00,
2013-05-22 10:02:00,82.2,76.5,29.81,SE,137,6.0,10.0,83,0.00,,,0.00,meteohub,2013-05-22 15:02:00,
2013-05-22 10:07:00,82.2,76.5,29.81,SE,130,6.0,13.0,83,0.00,,,0.00,meteohub,2013-05-22 15:07:00,
2013-05-22 10:12:00,82.2,76.5,29.81,ESE,110,7.0,13.0,83,0.00,,,0.00,meteohub,2013-05-22 15:12:00,
2013-05-22 10:16:00,82.4,76.3,29.81,ESE,107,7.0,12.0,82,0.00,,,0.00,meteohub,2013-05-22 15:16:00,
2013-05-22 10:21:00,82.6,76.5,29.81,ESE,117,6.0,12.0,82,0.00,,,0.00,meteohub,2013-05-22 15:21:00,
2013-05-22 10:26:00,82.9,76.5,29.81,SE,139,6.0,11.0,81,0.00,,,0.00,meteohub,2013-05-22 15:26:00,
2013-05-22 10:32:00,82.8,76.3,29.81,SE,143,9.0,12.0,81,0.00,,,0.00,meteohub,2013-05-22 15:32:00,
2013-05-22 10:37:00,82.9,76.5,29.81,ESE,107,10.0,13.0,81,0.00,,,0.00,meteohub,2013-05-22 15:37:00,
2013-05-22 10:42:00,83.1,76.6,29.81,SE,137,8.0,13.0,81,0.00,,,0.00,meteohub,2013-05-22 15:42:00,
2013-05-22 10:47:00,83.3,76.5,29.81,SE,127,5.0,13.0,80,0.00,,,0.00,meteohub,2013-05-22 15:47:00,
2013-05-22 10:52:00,83.1,76.3,29.81,SE,127,6.0,12.0,80,0.00,,,0.00,meteohub,2013-05-22 15:52:00,
2013-05-22 10:57:00,83.3,76.5,29.81,ESE,113,8.0,12.0,80,0.00,,,0.00,meteohub,2013-05-22 15:57:00,
2013-05-22 11:02:00,83.1,76.3,29.81,SE,134,6.0,13.0,80,0.00,,,0.00,meteohub,2013-05-22 16:02:00,
2013-05-22 11:07:00,83.3,76.5,29.82,SE,128,8.0,14.0,80,0.00,,,0.00,meteohub,2013-05-22 16:07:00,
2013-05-22 11:12:00,83.5,76.6,29.82,SE,127,7.0,14.0,80,0.00,,,0.00,meteohub,2013-05-22 16:12:00,
2013-05-22 11:17:00,83.8,76.3,29.81,SE,135,6.0,14.0,78,0.00,,,0.00,meteohub,2013-05-22 16:17:00,
2013-05-22 11:22:00,84.4,76.8,29.81,ESE,120,9.0,13.0,78,0.00,,,0.00,meteohub,2013-05-22 16:22:00,
2013-05-22 11:27:00,84.4,76.5,29.81,ESE,115,7.0,13.0,77,0.00,,,0.00,meteohub,2013-05-22 16:27:00,
2013-05-22 11:32:00,84.4,76.5,29.81,ESE,116,5.0,13.0,77,0.00,,,0.00,meteohub,2013-05-22 16:32:00,
2013-05-22 11:37:00,84.6,76.5,29.81,ESE,112,6.0,12.0,77,0.00,,,0.00,meteohub,2013-05-22 16:37:00,
2013-05-22 11:42:00,84.9,76.5,29.81,ESE,103,6.0,12.0,76,0.00,,,0.00,meteohub,2013-05-22 16:42:00,
2013-05-22 11:47:00,84.9,76.5,29.81,SE,146,7.0,10.0,76,0.00,,,0.00,meteohub,2013-05-22 16:47:00,
2013-05-22 11:52:00,84.9,76.1,29.81,ESE,120,6.0,11.0,75,0.00,,,0.00,meteohub,2013-05-22 16:52:00,
2013-05-22 11:57:00,85.3,76.5,29.81,SE,143,5.0,11.0,75,0.00,,,0.00,meteohub,2013-05-22 16:57:00,
2013-05-22 12:02:00,85.6,75.9,29.81,ESE,105,7.0,11.0,73,0.00,,,0.00,meteohub,2013-05-22 17:02:00,
2013-05-22 12:07:00,86.0,76.3,29.81,East,97,11.0,13.0,73,0.00,,,0.00,meteohub,2013-05-22 17:07:00,
2013-05-22 12:12:00,86.4,76.3,29.81,SE,133,10.0,13.0,72,0.00,,,0.00,meteohub,2013-05-22 17:12:00,
2013-05-22 12:16:00,86.5,76.5,29.81,ESE,113,13.0,17.0,72,0.00,,,0.00,meteohub,2013-05-22 17:16:00,
2013-05-22 12:21:00,86.5,76.5,29.81,ESE,110,7.0,17.0,72,0.00,,,0.00,meteohub,2013-05-22 17:21:00,
2013-05-22 12:26:00,86.7,76.1,29.82,ESE,115,10.0,17.0,71,0.00,,,0.00,meteohub,2013-05-22 17:26:00,
2013-05-22 12:31:00,86.7,75.7,29.81,ESE,120,6.0,16.0,70,0.00,,,0.00,meteohub,2013-05-22 17:31:00,
2013-05-22 12:36:00,87.1,76.5,29.81,East,84,5.0,16.0,71,0.00,,,0.00,meteohub,2013-05-22 17:36:00,
2013-05-22 12:42:00,87.3,76.3,29.81,SE,135,10.0,16.0,70,0.00,,,0.00,meteohub,2013-05-22 17:42:00,
2013-05-22 12:47:00,87.3,76.3,29.81,East,98,8.0,14.0,70,0.00,,,0.00,meteohub,2013-05-22 17:47:00,
2013-05-22 12:52:00,87.1,75.7,29.81,East,87,13.0,15.0,69,0.00,,,0.00,meteohub,2013-05-22 17:52:00,
2013-05-22 12:57:00,87.3,75.9,29.81,SE,143,6.0,15.0,69,0.00,,,0.00,meteohub,2013-05-22 17:57:00,
2013-05-22 13:02:00,87.3,75.9,29.81,East,89,6.0,15.0,69,0.00,,,0.00,meteohub,2013-05-22 18:02:00,
2013-05-22 13:07:00,87.6,76.1,29.81,East,98,7.0,14.0,69,0.00,,,0.00,meteohub,2013-05-22 18:07:00,
2013-05-22 13:12:00,87.6,75.7,29.81,ESE,117,12.0,14.0,68,0.00,,,0.00,meteohub,2013-05-22 18:12:00,
2013-05-22 13:17:00,87.3,75.9,29.81,East,98,11.0,17.0,69,0.00,,,0.00,meteohub,2013-05-22 18:17:00,
2013-05-22 13:22:00,87.1,75.7,29.81,ESE,105,10.0,17.0,69,0.00,,,0.00,meteohub,2013-05-22 18:22:00,
2013-05-22 13:27:00,87.3,75.9,29.81,East,92,6.0,16.0,69,0.00,,,0.00,meteohub,2013-05-22 18:27:00,
2013-05-22 13:32:00,87.3,76.3,29.81,ESE,111,10.0,14.0,70,0.00,,,0.00,meteohub,2013-05-22 18:32:00,
2013-05-22 13:37:00,87.3,75.9,29.81,ESE,115,9.0,15.0,69,0.00,,,0.00,meteohub,2013-05-22 18:37:00,
2013-05-22 13:42:00,87.3,75.9,29.81,SE,124,12.0,15.0,69,0.00,,,0.00,meteohub,2013-05-22 18:42:00,
2013-05-22 13:47:00,86.7,75.7,29.81,ESE,119,11.0,17.0,70,0.00,,,0.00,meteohub,2013-05-22 18:47:00,
2013-05-22 13:52:00,86.4,75.4,29.81,East,101,9.0,17.0,70,0.00,,,0.00,meteohub,2013-05-22 18:52:00,
2013-05-22 13:57:00,86.4,75.4,29.81,ESE,108,10.0,17.0,70,0.00,,,0.00,meteohub,2013-05-22 18:57:00,
2013-05-22 14:02:00,86.4,75.4,29.80,ENE,70,7.0,17.0,70,0.00,,,0.00,meteohub,2013-05-22 19:02:00,
2013-05-22 14:07:00,86.5,75.2,29.80,East,82,12.0,16.0,69,0.00,,,0.00,meteohub,2013-05-22 19:07:00,
2013-05-22 14:12:00,86.7,75.7,29.80,SSE,167,8.0,16.0,70,0.00,,,0.00,meteohub,2013-05-22 19:12:00,
2013-05-22 14:17:00,87.1,75.7,29.80,SE,126,9.0,16.0,69,0.00,,,0.00,meteohub,2013-05-22 19:17:00,
2013-05-22 14:22:00,86.9,75.6,29.79,ESE,110,9.0,17.0,69,0.00,,,0.00,meteohub,2013-05-22 19:22:00,
2013-05-22 14:27:00,86.5,75.6,29.79,East,96,7.0,17.0,70,0.00,,,0.00,meteohub,2013-05-22 19:27:00,
2013-05-22 14:32:00,86.5,75.6,29.79,SE,133,13.0,16.0,70,0.00,,,0.00,meteohub,2013-05-22 19:32:00,
2013-05-22 14:37:00,86.5,75.6,29.79,East,98,12.0,16.0,70,0.00,,,0.00,meteohub,2013-05-22 19:37:00,
2013-05-22 14:42:00,86.5,75.6,29.79,ESE,112,12.0,17.0,70,0.00,,,0.00,meteohub,2013-05-22 19:42:00,
2013-05-22 14:47:00,87.1,76.1,29.79,East,86,15.0,17.0,70,0.00,,,0.00,meteohub,2013-05-22 19:47:00,
2013-05-22 14:52:00,86.9,75.9,29.79,SE,146,10.0,16.0,70,0.00,,,0.00,meteohub,2013-05-22 19:52:00,
2013-05-22 14:57:00,87.3,76.3,29.78,SE,132,6.0,18.0,70,0.00,,,0.00,meteohub,2013-05-22 19:57:00,
2013-05-22 15:02:00,87.1,75.7,29.78,SE,136,8.0,18.0,69,0.00,,,0.00,meteohub,2013-05-22 20:02:00,
2013-05-22 15:07:00,86.4,75.9,29.78,ESE,108,11.0,18.0,71,0.00,,,0.00,meteohub,2013-05-22 20:07:00,
2013-05-22 15:12:00,86.4,75.9,29.78,ESE,106,10.0,20.0,71,0.00,,,0.00,meteohub,2013-05-22 20:12:00,
2013-05-22 15:17:00,86.4,75.9,29.78,SE,129,11.0,20.0,71,0.00,,,0.00,meteohub,2013-05-22 20:17:00,
2013-05-22 15:22:00,86.4,76.3,29.78,SE,124,19.0,19.0,72,0.00,,,0.00,meteohub,2013-05-22 20:22:00,
2013-05-22 15:27:00,86.2,76.1,29.78,SE,135,14.0,19.0,72,0.00,,,0.00,meteohub,2013-05-22 20:27:00,
2013-05-22 15:32:00,86.2,76.1,29.78,East,101,13.0,19.0,72,0.00,,,0.00,meteohub,2013-05-22 20:32:00,
2013-05-22 15:37:00,86.2,76.1,29.78,SE,127,8.0,19.0,72,0.00,,,0.00,meteohub,2013-05-22 20:37:00,
2013-05-22 15:42:00,86.2,75.7,29.78,South,172,10.0,18.0,71,0.00,,,0.00,meteohub,2013-05-22 20:42:00,
2013-05-22 15:47:00,86.2,76.1,29.77,SE,126,12.0,18.0,72,0.00,,,0.00,meteohub,2013-05-22 20:47:00,
2013-05-22 15:52:00,86.5,76.5,29.77,ENE,59,7.0,18.0,72,0.00,,,0.00,meteohub,2013-05-22 20:52:00,
2013-05-22 15:57:00,86.9,76.3,29.77,ESE,122,8.0,18.0,71,0.00,,,0.00,meteohub,2013-05-22 20:57:00,
2013-05-22 16:02:00,87.3,76.3,29.77,East,100,10.0,17.0,70,0.00,,,0.00,meteohub,2013-05-22 21:02:00,
2013-05-22 16:07:00,86.5,75.9,29.77,ESE,113,11.0,16.0,71,0.00,,,0.00,meteohub,2013-05-22 21:07:00,
2013-05-22 16:12:00,86.4,75.9,29.77,ESE,117,14.0,18.0,71,0.00,,,0.00,meteohub,2013-05-22 21:12:00,
2013-05-22 16:17:00,86.5,75.9,29.77,SE,131,8.0,18.0,71,0.00,,,0.00,meteohub,2013-05-22 21:17:00,
2013-05-22 16:22:00,86.5,75.9,29.77,SE,137,7.0,18.0,71,0.00,,,0.00,meteohub,2013-05-22 21:22:00,
2013-05-22 16:27:00,86.5,75.9,29.77,SE,129,5.0,16.0,71,0.00,,,0.00,meteohub,2013-05-22 21:27:00,
2013-05-22 16:32:00,86.5,75.9,29.76,East,86,13.0,17.0,71,0.00,,,0.00,meteohub,2013-05-22 21:32:00,
2013-05-22 16:37:00,86.5,75.9,29.76,ESE,113,9.0,17.0,71,0.00,,,0.00,meteohub,2013-05-22 21:37:00,
2013-05-22 16:42:00,86.5,75.9,29.76,East,86,9.0,17.0,71,0.00,,,0.00,meteohub,2013-05-22 21:42:00,
2013-05-22 16:47:00,86.5,75.9,29.76,SE,137,10.0,15.0,71,0.00,,,0.00,meteohub,2013-05-22 21:47:00,
2013-05-22 16:52:00,86.5,76.5,29.76,ESE,121,15.0,18.0,72,0.00,,,0.00,meteohub,2013-05-22 21:52:00,
2013-05-22 16:57:00,86.5,76.5,29.76,ESE,113,8.0,18.0,72,0.00,,,0.00,meteohub,2013-05-22 21:57:00,
2013-05-22 17:02:00,86.4,76.3,29.75,ESE,102,13.0,18.0,72,0.00,,,0.00,meteohub,2013-05-22 22:02:00,
2013-05-22 17:07:00,86.0,75.9,29.75,ESE,117,11.0,17.0,72,0.00,,,0.00,meteohub,2013-05-22 22:07:00,
2013-05-22 17:12:00,85.6,75.6,29.75,East,79,10.0,16.0,72,0.00,,,0.00,meteohub,2013-05-22 22:12:00,
2013-05-22 17:17:00,85.6,75.6,29.75,ESE,116,8.0,16.0,72,0.00,,,0.00,meteohub,2013-05-22 22:17:00,
2013-05-22 17:22:00,85.8,75.7,29.75,ESE,116,13.0,16.0,72,0.00,,,0.00,meteohub,2013-05-22 22:22:00,
2013-05-22 17:27:00,85.8,75.7,29.75,ESE,102,8.0,15.0,72,0.00,,,0.00,meteohub,2013-05-22 22:27:00,
2013-05-22 17:32:00,86.0,75.9,29.75,ESE,104,8.0,14.0,72,0.00,,,0.00,meteohub,2013-05-22 22:32:00,
2013-05-22 17:37:00,86.2,76.1,29.75,SSE,150,8.0,15.0,72,0.00,,,0.00,meteohub,2013-05-22 22:37:00,
2013-05-22 17:42:00,85.8,75.7,29.74,ESE,109,11.0,16.0,72,0.00,,,0.00,meteohub,2013-05-22 22:42:00,
2013-05-22 17:47:00,86.0,75.9,29.74,East,91,7.0,16.0,72,0.00,,,0.00,meteohub,2013-05-22 22:47:00,
2013-05-22 17:52:00,86.0,75.9,29.74,SE,146,9.0,16.0,72,0.00,,,0.00,meteohub,2013-05-22 22:52:00,
2013-05-22 17:57:00,86.0,75.9,29.74,SSE,150,6.0,15.0,72,0.00,,,0.00,meteohub,2013-05-22 22:57:00,
2013-05-22 18:02:00,86.0,75.9,29.74,ESE,122,8.0,15.0,72,0.00,,,0.00,meteohub,2013-05-22 23:02:00,
2013-05-22 18:07:00,85.6,75.6,29.74,ESE,115,9.0,13.0,72,0.00,,,0.00,meteohub,2013-05-22 23:07:00,
2013-05-22 18:12:00,85.8,76.1,29.74,SE,134,8.0,13.0,73,0.00,,,0.00,meteohub,2013-05-22 23:12:00,
2013-05-22 18:17:00,85.8,75.7,29.74,ESE,107,8.0,14.0,72,0.00,,,0.00,meteohub,2013-05-22 23:17:00,
2013-05-22 18:22:00,85.6,75.6,29.74,SE,136,6.0,16.0,72,0.00,,,0.00,meteohub,2013-05-22 23:22:00,
2013-05-22 18:28:00,85.6,75.9,29.74,SE,124,9.0,16.0,73,0.00,,,0.00,meteohub,2013-05-22 23:28:00,
2013-05-22 18:33:00,85.6,75.9,29.74,SE,129,6.0,14.0,73,0.00,,,0.00,meteohub,2013-05-22 23:33:00,
2013-05-22 18:38:00,85.5,75.7,29.74,ESE,116,10.0,14.0,73,0.00,,,0.00,meteohub,2013-05-22 23:38:00,
2013-05-22 18:43:00,85.3,75.6,29.74,SE,134,7.0,14.0,73,0.00,,,0.00,meteohub,2013-05-22 23:43:00,
2013-05-22 18:48:00,85.3,75.6,29.74,ESE,118,12.0,14.0,73,0.00,,,0.00,meteohub,2013-05-22 23:48:00,
2013-05-22 18:53:00,85.3,76.1,29.74,SE,138,9.0,15.0,74,0.00,,,0.00,meteohub,2013-05-22 23:53:00,
2013-05-22 18:58:00,85.5,75.7,29.74,ESE,118,13.0,15.0,73,0.00,,,0.00,meteohub,2013-05-22 23:58:00,
2013-05-22 19:03:00,84.9,75.7,29.74,East,96,10.0,15.0,74,0.00,,,0.00,meteohub,2013-05-23 00:03:00,
2013-05-22 19:08:00,84.7,75.6,29.74,East,101,6.0,15.0,74,0.00,,,0.00,meteohub,2013-05-23 00:08:00,
2013-05-22 19:13:00,84.7,75.6,29.74,SE,125,9.0,15.0,74,0.00,,,0.00,meteohub,2013-05-23 00:13:00,
2013-05-22 19:18:00,84.6,75.4,29.75,ESE,113,13.0,15.0,74,0.00,,,0.00,meteohub,2013-05-23 00:18:00,
2013-05-22 19:24:00,84.4,75.6,29.75,ESE,117,11.0,15.0,75,0.00,,,0.00,meteohub,2013-05-23 00:24:00,
2013-05-22 19:29:00,84.2,75.4,29.75,ESE,113,10.0,15.0,75,0.00,,,0.00,meteohub,2013-05-23 00:29:00,
2013-05-22 19:34:00,84.0,75.2,29.75,SE,141,7.0,15.0,75,0.00,,,0.00,meteohub,2013-05-23 00:34:00,
2013-05-22 19:39:00,84.0,75.2,29.75,SE,132,7.0,14.0,75,0.00,,,0.00,meteohub,2013-05-23 00:39:00,
2013-05-22 19:44:00,83.8,75.0,29.75,ESE,107,10.0,13.0,75,0.00,,,0.00,meteohub,2013-05-23 00:44:00,
2013-05-22 19:49:00,83.5,75.0,29.75,ESE,115,11.0,17.0,76,0.00,,,0.00,meteohub,2013-05-23 00:49:00,
2013-05-22 19:54:00,83.5,75.6,29.76,ESE,117,11.0,17.0,77,0.00,,,0.00,meteohub,2013-05-23 00:54:00,
2013-05-22 19:59:00,83.3,75.4,29.76,SE,134,7.0,17.0,77,0.00,,,0.00,meteohub,2013-05-23 00:59:00,
2013-05-22 20:04:00,82.9,75.4,29.76,ESE,115,11.0,15.0,78,0.00,,,0.00,meteohub,2013-05-23 01:04:00,
2013-05-22 20:09:00,82.6,75.0,29.76,SE,135,12.0,15.0,78,0.00,,,0.00,meteohub,2013-05-23 01:09:00,
2013-05-22 20:14:00,82.2,75.0,29.77,SE,132,12.0,15.0,79,0.00,,,0.00,meteohub,2013-05-23 01:14:00,
2013-05-22 20:19:00,82.0,74.8,29.77,ESE,104,9.0,16.0,79,0.00,,,0.00,meteohub,2013-05-23 01:19:00,
2013-05-22 20:24:00,81.9,75.0,29.77,SE,139,7.0,16.0,80,0.00,,,0.00,meteohub,2013-05-23 01:24:00,
2013-05-22 20:29:00,81.7,75.6,29.77,ESE,121,10.0,15.0,82,0.00,,,0.00,meteohub,2013-05-23 01:29:00,
2013-05-22 20:35:00,81.3,75.7,29.77,ESE,121,7.0,15.0,83,0.00,,,0.00,meteohub,2013-05-23 01:35:00,
2013-05-22 20:40:00,81.0,75.7,29.77,ESE,116,12.0,15.0,84,0.00,,,0.00,meteohub,2013-05-23 01:40:00,
2013-05-22 20:45:00,80.8,75.9,29.78,ESE,109,9.0,14.0,85,0.00,,,0.00,meteohub,2013-05-23 01:45:00,
2013-05-22 20:50:00,80.4,75.6,29.78,ESE,111,9.0,15.0,85,0.00,,,0.00,meteohub,2013-05-23 01:50:00,
2013-05-22 20:55:00,80.2,75.4,29.78,ESE,110,6.0,15.0,85,0.00,,,0.00,meteohub,2013-05-23 01:55:00,
2013-05-22 21:00:00,80.2,75.7,29.78,East,98,7.0,14.0,86,0.00,,,0.00,meteohub,2013-05-23 02:00:00,
2013-05-22 21:05:00,79.9,75.7,29.78,ESE,108,9.0,14.0,87,0.00,,,0.00,meteohub,2013-05-23 02:05:00,
2013-05-22 21:10:00,79.9,75.7,29.78,ESE,120,8.0,14.0,87,0.00,,,0.00,meteohub,2013-05-23 02:10:00,
2013-05-22 21:15:00,79.9,75.7,29.79,SE,124,9.0,14.0,87,0.00,,,0.00,meteohub,2013-05-23 02:15:00,
2013-05-22 21:20:00,79.7,75.6,29.79,ESE,105,9.0,14.0,87,0.00,,,0.00,meteohub,2013-05-23 02:20:00,
2013-05-22 21:25:00,79.5,75.6,29.79,ESE,120,8.0,14.0,88,0.00,,,0.00,meteohub,2013-05-23 02:25:00,
2013-05-22 21:30:00,79.3,75.6,29.79,SE,146,8.0,15.0,88,0.00,,,0.00,meteohub,2013-05-23 02:30:00,
2013-05-22 21:35:00,79.3,75.6,29.80,SE,130,8.0,15.0,88,0.00,,,0.00,meteohub,2013-05-23 02:35:00,
2013-05-22 21:40:00,79.2,75.4,29.80,SE,126,11.0,15.0,88,0.00,,,0.00,meteohub,2013-05-23 02:40:00,
2013-05-22 21:46:00,79.2,75.6,29.80,SE,141,10.0,15.0,89,0.00,,,0.00,meteohub,2013-05-23 02:46:00,
2013-05-22 21:51:00,79.0,75.4,29.81,East,100,14.0,15.0,89,0.00,,,0.00,meteohub,2013-05-23 02:51:00,
2013-05-22 21:56:00,79.0,75.4,29.81,ESE,112,13.0,15.0,89,0.00,,,0.00,meteohub,2013-05-23 02:56:00,
2013-05-22 22:01:00,78.8,75.6,29.81,ESE,108,9.0,17.0,90,0.00,,,0.00,meteohub,2013-05-23 03:01:00,
2013-05-22 22:06:00,78.8,75.6,29.81,SE,138,12.0,17.0,90,0.00,,,0.00,meteohub,2013-05-23 03:06:00,
2013-05-22 22:11:00,78.8,75.6,29.81,ESE,121,11.0,16.0,90,0.00,,,0.00,meteohub,2013-05-23 03:11:00,
2013-05-22 22:16:00,78.6,75.4,29.81,SE,141,8.0,14.0,90,0.00,,,0.00,meteohub,2013-05-23 03:16:00,
2013-05-22 22:21:00,78.6,75.4,29.81,SSE,149,7.0,15.0,90,0.00,,,0.00,meteohub,2013-05-23 03:21:00,
2013-05-22 22:26:00,78.6,75.4,29.82,SE,127,9.0,16.0,90,0.00,,,0.00,meteohub,2013-05-23 03:26:00,
2013-05-22 22:31:00,78.6,75.4,29.82,ESE,118,8.0,16.0,90,0.00,,,0.00,meteohub,2013-05-23 03:31:00,
2013-05-22 22:36:00,78.6,75.4,29.82,ESE,114,9.0,15.0,90,0.00,,,0.00,meteohub,2013-05-23 03:36:00,
2013-05-22 22:41:00,78.6,75.4,29.82,ESE,122,7.0,14.0,90,0.00,,,0.00,meteohub,2013-05-23 03:41:00,
2013-05-22 22:46:00,78.6,75.4,29.82,ESE,115,10.0,14.0,90,0.00,,,0.00,meteohub,2013-05-23 03:46:00,
2013-05-22 22:51:00,78.4,75.2,29.82,SE,129,10.0,14.0,90,0.00,,,0.00,meteohub,2013-05-23 03:51:00,
2013-05-22 22:56:00,78.4,75.2,29.83,SE,133,5.0,14.0,90,0.00,,,0.00,meteohub,2013-05-23 03:56:00,
2013-05-22 23:01:00,78.4,75.2,29.83,ESE,118,8.0,14.0,90,0.00,,,0.00,meteohub,2013-05-23 04:01:00,
2013-05-22 23:02:00,78.4,75.2,29.83,ESE,108,10.0,14.0,90,0.00,,,0.00,meteohub,2013-05-23 04:02:00,
2013-05-22 23:07:00,78.4,75.2,29.83,ESE,120,7.0,14.0,90,0.00,,,0.00,meteohub,2013-05-23 04:07:00,
2013-05-22 23:12:00,78.4,75.6,29.83,SE,127,11.0,12.0,91,0.00,,,0.00,meteohub,2013-05-23 04:12:00,
2013-05-22 23:17:00,78.4,75.6,29.83,SE,134,5.0,12.0,91,0.00,,,0.00,meteohub,2013-05-23 04:17:00,
2013-05-22 23:22:00,78.4,75.6,29.83,SE,141,13.0,13.0,91,0.00,,,0.00,meteohub,2013-05-23 04:22:00,
2013-05-22 23:28:00,78.3,75.4,29.83,SE,129,8.0,13.0,91,0.00,,,0.00,meteohub,2013-05-23 04:28:00,
2013-05-22 23:33:00,78.3,75.4,29.84,SE,135,6.0,13.0,91,0.00,,,0.00,meteohub,2013-05-23 04:33:00,
2013-05-22 23:38:00,78.3,75.4,29.84,SE,127,5.0,13.0,91,0.00,,,0.00,meteohub,2013-05-23 04:38:00,
2013-05-22 23:43:00,78.3,75.4,29.84,SSE,159,7.0,12.0,91,0.00,,,0.00,meteohub,2013-05-23 04:43:00,
2013-05-22 23:48:00,78.1,75.6,29.84,SE,136,6.0,11.0,92,0.00,,,0.00,meteohub,2013-05-23 04:48:00,
2013-05-22 23:53:00,78.1,75.6,29.84,SE,131,7.0,11.0,92,0.00,,,0.00,meteohub,2013-05-23 04:53:00,
2013-05-22 23:58:00,78.1,75.6,29.84,ESE,112,5.0,11.0,92,0.00,,,0.00,meteohub,2013-05-23 04:58:00,